Weather History for Sanford, FL

Change the Weather History Date:

Sunday, August 11, 2013

  Actual Average Record
Temperature  
Mean Temperature 87 °F -  
Max Temperature 97 °F 92 °F 98 °F (2006)
Min Temperature 78 °F 71 °F 67 °F (1979)
Cooling Degree Days 22    
Growing Degree Days 37 (Base 50)    
Moisture  
Dew Point 74 °F    
Average Humidity 73    
Maximum Humidity 94    
Minimum Humidity 43    
Precipitation  
Precipitation 0.00 in - - ()
Sea Level Pressure  
Sea Level Pressure 30.14 in    
Wind  
Wind Speed 5 mph (SE)    
Max Wind Speed 15 mph    
Max Gust Speed -    
Visibility 10 miles    
Events      
Averages and records for this station are not official NWS values.
T = Trace of Precipitation, MM = Missing Value Source: NWS Daily Summary

Daily Weather History Graph

Daily Weather History Graph

Search for Another Location

Airport:

Trip Planner

Search our weather history database for the weather conditions in past years. The results will help you decide how hot, cold, wet, or windy it might be!

Date:

Astronomy

Aug. 11, 2013 Rise Set
Actual Time 6:51 AM EDT 8:07 PM EDT
Civil Twilight 6:26 AM EDT 8:32 PM EDT
Nautical Twilight 5:57 AM EDT 9:02 PM EDT
Astronomical Twilight 5:26 AM EDT 9:33 PM EDT
Moon 11:09 AM EDT (8/11) 10:53 PM EDT (8/11)
Length of Visible Light 14h 05m
Length of Day
13h 15m
Waxing Crescent, 22% of the Moon is Illuminated
Aug 11
Waxing Crescent
Aug 14
First Quarter
Aug 20
Full
Aug 28
Last Quarter
Sep 5
New

Hourly Weather History & Observations

Time (EDT) Temp. Heat Index Dew Point Humidity Pressure Visibility Wind Dir Wind Speed Gust Speed Precip Events Conditions
12:53 AM 79.0 °F - 75.0 °F 88% 30.14 in 10.0 mi East 4.6 mph - N/A   Clear
1:53 AM 79.0 °F - 75.9 °F 90% 30.14 in 10.0 mi Calm Calm - N/A   Clear
2:53 AM 79.0 °F - 75.9 °F 90% 30.13 in 10.0 mi SE 4.6 mph - N/A   Clear
3:53 AM 79.0 °F - 77.0 °F 94% 30.13 in 9.0 mi SSE 3.5 mph - N/A   Clear
4:53 AM 78.1 °F - 75.9 °F 93% 30.13 in 9.0 mi SE 3.5 mph - N/A   Clear
5:53 AM 78.1 °F - 75.9 °F 93% 30.13 in 9.0 mi Calm Calm - N/A   Clear
6:53 AM 78.1 °F - 75.9 °F 93% 30.14 in 7.0 mi Calm Calm - N/A   Clear
7:53 AM 80.1 °F 85.8 °F 77.0 °F 90% 30.15 in 8.0 mi South 3.5 mph - N/A   Clear
8:53 AM 82.9 °F 91.8 °F 77.0 °F 82% 30.17 in 10.0 mi South 5.8 mph - N/A   Clear
9:53 AM 84.9 °F 95.3 °F 77.0 °F 77% 30.17 in 10.0 mi SSE 8.1 mph - N/A   Scattered Clouds
10:08 AM 86.0 °F 95.1 °F 75.2 °F 70% 30.17 in 10.0 mi SE 6.9 mph - N/A   Mostly Cloudy
10:25 AM 86.0 °F 95.1 °F 75.2 °F 70% 30.18 in 10.0 mi South 8.1 mph - N/A   Scattered Clouds
10:53 AM 88.0 °F 97.5 °F 75.0 °F 65% 30.17 in 10.0 mi South 6.9 mph - N/A   Partly Cloudy
11:53 AM 90.0 °F 96.9 °F 72.0 °F 55% 30.17 in 10.0 mi South 5.8 mph - N/A   Clear
12:53 PM 91.0 °F 99.3 °F 73.0 °F 55% 30.16 in 10.0 mi Variable 4.6 mph - N/A   Clear
1:53 PM 93.0 °F 100.7 °F 72.0 °F 50% 30.14 in 10.0 mi Calm Calm - N/A   Clear
2:53 PM 95.0 °F 101.3 °F 70.0 °F 44% 30.12 in 10.0 mi SE 3.5 mph - N/A   Clear
3:53 PM 96.1 °F 102.9 °F 70.0 °F 43% 30.10 in 10.0 mi East 6.9 mph - N/A   Clear
4:53 PM 91.9 °F 101.3 °F 73.9 °F 55% 30.09 in 10.0 mi East 11.5 mph - N/A   Partly Cloudy
5:53 PM 91.0 °F 101.6 °F 75.0 °F 59% 30.08 in 10.0 mi East 15.0 mph - N/A   Clear
6:53 PM 88.0 °F 95.6 °F 73.0 °F 61% 30.09 in 10.0 mi East 13.8 mph - N/A   Clear
7:53 PM 86.0 °F 93.0 °F 73.0 °F 65% 30.10 in 10.0 mi East 6.9 mph - N/A   Clear
8:53 PM 82.9 °F 89.4 °F 73.9 °F 74% 30.11 in 10.0 mi ESE 5.8 mph - N/A   Clear
9:53 PM 82.0 °F 87.9 °F 73.9 °F 76% 30.12 in 10.0 mi SE 6.9 mph - N/A   Clear
10:53 PM 82.0 °F 87.9 °F 73.9 °F 76% 30.14 in 10.0 mi SSE 5.8 mph - N/A   Clear
11:53 PM 81.0 °F 86.2 °F 73.9 °F 79% 30.14 in 10.0 mi SSE 5.8 mph - N/A   Clear